TimeEST,TemperatureF,Dew PointF,Humidity,Sea Level PressureIn,VisibilityMPH,Wind Direction,Wind SpeedMPH,Gust SpeedMPH,PrecipitationIn,Events,Conditions,WindDirDegrees,DateUTC
12:02 AM,71.6,69.8,94,29.97,3.0,SW,4.6,-,N/A,,Overcast,220,2013-02-24 05:02:00
12:14 AM,71.6,69.8,94,29.97,2.5,SSW,3.5,-,N/A,,Overcast,210,2013-02-24 05:14:00
12:25 AM,71.6,69.8,94,29.97,3.0,SSW,4.6,-,N/A,,Overcast,200,2013-02-24 05:25:00
12:48 AM,71.6,69.8,94,29.96,2.0,SSW,3.5,-,N/A,,Overcast,210,2013-02-24 05:48:00
12:53 AM,71.1,70.0,96,29.97,2.0,SSW,5.8,-,N/A,,Overcast,210,2013-02-24 05:53:00
1:35 AM,71.6,69.8,94,29.95,3.0,South,3.5,-,N/A,,Overcast,190,2013-02-24 06:35:00
1:50 AM,71.6,69.8,94,29.95,2.5,SSW,3.5,-,N/A,,Overcast,200,2013-02-24 06:50:00
1:53 AM,70.0,69.1,97,29.95,2.5,South,5.8,-,N/A,,Overcast,190,2013-02-24 06:53:00
2:21 AM,69.8,69.8,100,29.94,3.0,South,4.6,-,N/A,,Overcast,190,2013-02-24 07:21:00
2:53 AM,70.0,69.1,97,29.94,2.5,SSW,4.6,-,N/A,,Overcast,200,2013-02-24 07:53:00
3:04 AM,69.8,69.8,100,29.93,3.0,SSW,4.6,-,N/A,,Overcast,200,2013-02-24 08:04:00
3:15 AM,69.8,69.8,100,29.93,2.5,South,5.8,-,N/A,,Overcast,190,2013-02-24 08:15:00
3:43 AM,69.8,69.8,100,29.92,0.8,SSW,5.8,-,N/A,,Overcast,200,2013-02-24 08:43:00
3:53 AM,70.0,70.0,100,29.93,0.5,SSW,5.8,-,N/A,Fog,Fog,200,2013-02-24 08:53:00
4:36 AM,71.6,69.8,94,29.92,1.2,South,8.1,-,N/A,,Overcast,190,2013-02-24 09:36:00
4:49 AM,69.8,69.8,100,29.92,2.5,SSW,9.2,-,N/A,,Overcast,200,2013-02-24 09:49:00
4:53 AM,70.0,69.1,97,29.93,2.5,SSW,9.2,-,N/A,,Overcast,200,2013-02-24 09:53:00
5:08 AM,71.6,69.8,94,29.92,3.0,SSW,5.8,-,N/A,,Overcast,200,2013-02-24 10:08:00
5:20 AM,71.6,69.8,94,29.93,4.0,SSW,3.5,-,N/A,,Overcast,200,2013-02-24 10:20:00
5:53 AM,71.1,70.0,96,29.94,4.0,South,4.6,-,N/A,,Overcast,170,2013-02-24 10:53:00
6:33 AM,71.6,69.8,94,29.94,4.0,South,3.5,-,N/A,,Overcast,180,2013-02-24 11:33:00
6:53 AM,72.0,70.0,93,29.96,4.0,South,3.5,-,N/A,,Overcast,190,2013-02-24 11:53:00
7:00 AM,71.6,69.8,94,29.95,4.0,South,4.6,-,N/A,,Overcast,180,2013-02-24 12:00:00
7:25 AM,71.6,71.6,100,29.96,3.0,South,3.5,-,N/A,,Overcast,190,2013-02-24 12:25:00
7:53 AM,73.0,71.1,93,29.97,4.0,Calm,Calm,-,N/A,,Scattered Clouds,0,2013-02-24 12:53:00
8:53 AM,75.9,69.1,79,30.00,10.0,Calm,Calm,-,N/A,,Clear,0,2013-02-24 13:53:00
9:53 AM,80.1,69.1,69,30.00,10.0,WSW,8.1,-,N/A,,Clear,240,2013-02-24 14:53:00
10:53 AM,81.0,68.0,65,29.99,10.0,SSW,6.9,-,N/A,,Clear,210,2013-02-24 15:53:00
11:53 AM,82.9,66.9,58,29.98,10.0,SW,6.9,-,N/A,,Partly Cloudy,220,2013-02-24 16:53:00
12:53 PM,84.0,66.0,55,29.96,10.0,SW,6.9,-,N/A,,Clear,220,2013-02-24 17:53:00
1:53 PM,84.0,66.9,56,29.94,10.0,SSW,9.2,-,N/A,,Clear,210,2013-02-24 18:53:00
2:53 PM,82.9,66.9,58,29.93,10.0,SSW,8.1,-,N/A,,Clear,210,2013-02-24 19:53:00
3:53 PM,82.0,69.1,65,29.93,10.0,SW,10.4,-,N/A,,Clear,220,2013-02-24 20:53:00
4:53 PM,80.1,71.1,74,29.93,8.0,West,8.1,-,N/A,,Partly Cloudy,260,2013-02-24 21:53:00
5:53 PM,77.0,71.1,82,29.92,7.0,South,6.9,-,N/A,,Clear,180,2013-02-24 22:53:00
6:53 PM,73.9,70.0,87,29.94,7.0,SSW,3.5,-,N/A,,Clear,200,2013-02-24 23:53:00
7:53 PM,72.0,70.0,93,29.95,5.0,SSW,3.5,-,N/A,,Clear,210,2013-02-25 00:53:00
8:53 PM,71.1,69.1,93,29.96,5.0,WSW,3.5,-,N/A,,Clear,250,2013-02-25 01:53:00
9:53 PM,71.1,69.1,93,29.96,5.0,Calm,Calm,-,N/A,,Clear,0,2013-02-25 02:53:00
10:53 PM,70.0,68.0,93,29.94,4.0,SE,3.5,-,N/A,,Clear,130,2013-02-25 03:53:00
11:53 PM,70.0,68.0,93,29.93,3.0,ENE,3.5,-,N/A,,Clear,60,2013-02-25 04:53:00